This demonstration page uses our WeatherBlox Daily Observations layout. Learn more.

Left ArrowRight Arrow

41.86663, -103.66717

Hourly Observations for March 15, 2016

Temp ( °F °C ) Dew Point ( °F °C ) Humidity (%) Winds ( mph kmh ) Pressure ( in mb ) Visibility ( mi km ) Precip ( " mm )
12:53 am 00:53 Clear 34 1.1 30 -1.1 85 85 NW 10 17 29.71 1006 10 16 N/A
1:53 am 01:53 Clear 37 2.8 24 -4.4 59 59 W 16 26 29.75 1008 10 16 N/A
2:53 am 02:53 Clear 36 2.2 21 -6.1 55 55 WNW 12 19 29.75 1007 10 16 N/A
3:53 am 03:53 Clear 34 1.1 19 -7.2 54 54 W 9 15 29.76 1008 10 16 N/A
4:53 am 04:53 Clear 31 -0.6 18 -7.8 59 59 WNW 9 15 29.79 1009 10 16 N/A
5:53 am 05:53 Mostly Cloudy 34 1.1 18 -7.8 52 52 NW 15 24 29.80 1009 10 16 N/A
6:53 am 06:53 Cloudy 35 1.7 25 -3.9 67 67 WNW 16 26 29.83 1010 10 16 N/A
7:53 am 07:53 Cloudy 35 1.7 25 -3.9 67 67 WNW 21 33 29.89 1012 10 16 N/A
8:53 am 08:53 Partly Cloudy 37 2.8 24 -4.4 59 59 NW 25 41 29.93 1014 10 16 N/A
9:53 am 09:53 Sunny 40 4.4 23 -5 51 51 NNW 21 33 29.94 1014 10 16 N/A
10:53 am 10:53 Sunny 45 7.2 21 -6.1 39 39 WNW 20 31 29.93 1014 10 16 N/A
11:53 am 11:53 Mostly Cloudy 47 8.3 16 -8.9 29 29 NW 26 43 29.92 1013 10 16 N/A
12:53 pm 12:53 Mostly Sunny 47 8.3 12 -11.1 24 24 NNW 16 26 29.91 1013 10 16 N/A
1:53 pm 13:53 Cloudy 45 7.2 14 -10 29 29 W 8 13 29.90 1012 10 16 N/A
2:53 pm 14:53 Mostly Cloudy 46 7.8 12 -11.1 25 25 W 9 15 29.89 1012 10 16 N/A
3:53 pm 15:53 Cloudy 45 7.2 10 -12.2 24 24 W 16 26 29.91 1013 10 16 N/A
4:53 pm 16:53 Mostly Cloudy 46 7.8 9 -12.8 22 22 WNW 10 17 29.91 1013 10 16 N/A
5:53 pm 17:53 Cloudy 48 8.9 9 -12.8 20 20 NW 9 15 29.90 1013 10 16 N/A
6:53 pm 18:53 Mostly Cloudy 42 5.6 8 -13.3 24 24 NW 9 15 29.93 1014 10 16 N/A
7:53 pm 19:53 Clear 40 4.4 10 -12.2 29 29 WNW 8 13 29.95 1014 10 16 N/A
8:53 pm 20:53 Clear 39 3.9 10 -12.2 30 30 W 10 17 29.96 1015 10 16 N/A
9:53 pm 21:53 Clear 32 undefined 15 -9.4 50 50 WNW 7 11 29.98 1015 10 16 N/A
10:53 pm 22:53 Clear 30 -1.1 15 -9.4 54 54 NW 8 13 29.98 1015 10 16 N/A
11:53 pm 23:53 Clear 29 -1.7 15 -9.4 56 56 WNW 8 13 29.98 1015 10 16 N/A

Powered by AerisWeather